User: anonymous   Login
Location: Bojarzin Observatory
(39.7980°N, 89.7627°W)
Time: 18:09:32
(UTC-05:00)
Language:

ISS - Orbit

View from above orbital plane
View from above orbital plane
View from above satellite
View from above satellite

Ground track
Ground track

The orbit data is extracted from the following two-line orbital elements,

1 25544U 98067A   15183.83934191  .00006187  00000-0  95881-4 0  9993
2 25544 051.6457 005.8606 0003270 118.6525 015.7258 15.55480235950476
Epoch (UTC): 02 July 2015 20:08:39
Eccentricity: 0.0003270
inclination: 51.6457°
perigee height: 398 km
apogee height: 403 km
right ascension of ascending node: 5.8606°
argument of perigee: 118.6525°
revolutions per day: 15.55480235
mean anomaly at epoch: 15.7258°
orbit number at epoch: 95047

The dashed part of the orbit path shows where the satellite is in the earth's shadow,  

DLR